Weather Roundup
Issued by NWS Chicago, IL

Home | Current Version | Previous Version | Graphics & Text | Print | Product List | Glossary On
Versions: 1 2 3 4 5 6 7 8 9 10 11 12 13 14 15 16 17 18 19 20 21 22 23 24 25 26 27 28 29 30 31 32 33 34 35 36 37 38 39 40 41 42 43 44 45 46 47 48 49 50
472
NZUS59 KLOT 242012
HRRLOT

CHICAGO AREA WEATHER ROUNDUP
NATIONAL WEATHER SERVICE CHICAGO/ROMEOVILLE IL
200 PM CST FRI FEB 24 2017

NOTE: "FAIR" INDICATES FEW OR NO CLOUDS BELOW 12,000 FEET WITH NO
SIGNIFICANT WEATHER AND/OR OBSTRUCTIONS TO VISIBILITY.

* THESE STATIONS ARE NOT UNDER NWS QUALITY CONTROL. THEY ALSO MAY NOT
  REPORT WEATHER SUCH AS PRECIPITATION OR FOG.

ILZ005-006-012>014-019>023-242100-
NORTHEAST ILLINOIS

CITY           SKY/WX    TMP DP  RH WIND       PRES   REMARKS
OHARE          CLOUDY    40  37  89 N12       29.44S
MIDWAY         CLOUDY    41  38  89 N9        29.44S
AURORA         CLOUDY    42  40  92 NE9       29.45R
LANSING*       CLOUDY    40  40 100 NE7       29.44R
JOLIET*        CLOUDY    48  46  90 CALM      29.45R
WAUKEGAN       CLOUDY    37  36  96 N12G18    29.45S FOG
DUPAGE AIRPORT CLOUDY    40  37  89 N7        29.45R
WHEELING       CLOUDY    38  36  92 N9        29.47S
KANKAKEE*      CLOUDY    65  55  70 W22G30    29.45R
MORRIS*        CLOUDY    48  46  92 CALM      29.44R FOG
LEWIS AIRPORT* CLOUDY    44  44 100 NE6       29.45R
NORTHERLY ISL    N/A     40  38  93 MISG        N/A
$$

WIZ051-052-058>065-066-070>072-242100-
SOUTHEAST WISCONSIN

CITY           SKY/WX    TMP DP  RH WIND       PRES   REMARKS
MILWAUKEE      LGT RAIN  36  33  89 N15G25    29.48S FOG
KENOSHA*       CLOUDY    36  34  92 N13       29.46F FOG
RACINE*        CLOUDY    36  34  92 N20G28    29.48S FOG
WAUKESHA       CLOUDY    32  32 100 N12G21    29.49S FOG     WCI  23
WEST BEND      LGT SNOW  32  32 100 N6        29.51R WCI  26
$$

INZ001>003-010>013-019-020-242100-
NORTHWEST INDIANA

CITY           SKY/WX    TMP DP  RH WIND       PRES   REMARKS
GARY*          CLOUDY    39  39 100 NW8       29.45S FOG
MICHIGAN CITY* NOT AVBL
RENSSELAER*    NOT AVBL
VALPARAISO     CLOUDY    58  53  84 W7        29.43S
$$

LMZ740>746-242100-
SOUTHERN LAKE MICHIGAN

STATION/POSITION TIME  SKY/WX   TEMP WIND        PRES    VSBY
                                AIR  DIR/SP/G
                 (UTC)          (F)  (DEG/KT/KT) (MB)    (MI)
HARRISON CRIB    1940            37  330/ 19/ 22   N/A
BURNHAM HARBOR   2000            40   10/  9/ 11   N/A
CALUMET HARBOR   1948            39  340/  9/ 13  996.7F
BURNS HARBOR     1940            37  250/  6/  8  997.6F
MICHIGAN CITY    1940            37  220/ 11/ 12   N/A
$$

ABBREVIATIONS USED IN REMARKS
   TC - TEMPERATURE IN CELSIUS
  WCI - WIND CHILL INDEX
   HX - HEAT INDEX
  VSB - VISIBILITY
$$




USA.gov is the U.S. government's official web portal to all federal, state and local government web resources and services.